Terminal Aerodrome Forecast
Issued by NWS

Home | Current Version | Previous Version | Text Only | Print | Product List | Glossary On
Versions: 1 2 3 4 5 6 7 8 9 10 11 12 13 14 15 16 17 18 19 20 21 22 23 24 25 26 27 28 29 30
000
FTUS45 KBOU 190525
TAFBJC
TAF
KBJC 190525Z 1906/2006 29008KT P6SM FEW220
     FM191800 VRB05KT P6SM SCT220
     FM200100 28015KT P6SM BKN220=

USA.gov is the U.S. government's official web portal to all federal, state and local government web resources and services.